Tracking 30995 objects as of 5-Jul-2025
HD Live streaming from Space Station
objects crossing your sky now

STARLINK-32915

Track STARLINK-32915 now!
10-day predictions
STARLINK-32915 is classified as:


NORAD ID: 63152
Int'l Code: 2025-043W
Perigee: 488.0 km
Apogee: 492.3 km
Inclination: 43.0 °
Period: 94.3 minutes
Semi major axis: 6861 km
RCS: Unknown
Launch date: March 2, 2024
Source: United States (US)
Launch site: AIR FORCE EASTERN TEST RANGE (AFETR)
Your satellite tracking list
STARLINK-30915
Track 1 satellite(s)




NASA's NSSDC Master Catalog

Two Line Element Set (TLE):
1 63152U 25043W   25186.46765213  .00031272  00000-0  11404-2 0  9994
2 63152  43.0002 339.2271 0003148 291.4839  68.5677 15.27597526 20096
Source of the keplerian elements: AFSPC